Showing default

POLAR BEAR, 17070

Orbit data source: Space-Track

POLAR BEAR, 17070 is an American payload satellite in LEO that was launched on Fri, 14 Nov 1986 UTC via an SCOUT G-1 launch vehicle from the Air Force Western Test Range (AFWTR). Payload-class satellites include a variety of spacecraft equipped with specific instruments for various scientific and technological missions. These include communications satellites like Starlink; space stations such as the ISS; scientific satellites like the Hubble; Earth observation satellites from companies like Planet Labs, Umbra, and HawkEye 360; GPS; miniature CubeSats for education and research; and military/defense satellites.

Loading next visibility...
Identifier
17070, 1986-088A
Orbit
LEO
Country
Flag of USUS
Related business
Manufacturer
APL
Mission
Civil Science
Bus & Motor
TRANSIT 5, Unknown motor
Mass
114 kg wet, 114 kg dry
Launch date (UTC)
1986-11-14 (40 years ago)
Launch vehicle
SCOUT G-1
Launch site
Air Force Western Test Range (AFWTR)
Object type
Payload
Rocket body
Debris
Shape & HBR
Oct Cyl + 4 Pan + 1 Ant, Unknown HBR
Radar Cross Section
0.163 m², Large (>1 m²)

Expand to show TLE details & history
Last TLE update: 2 days ago

TLE from 2 days ago
0 POLAR BEAR
1 17070U 86088A   26171.45765818  .00000078  00000-0  70170-4 0  9990
2 17070  89.6182 176.2534 0037065 268.1731 252.0761 13.75288616985864
Epoch: 2026-06-20T10:59Z
TLE epoch observation values (Epoch: 2026-06-20T10:59:01.666Z)
Latitude
20.15577°
Longitude
-77.31496°
Altitude
991.729 km
Speed
7.353 km/s
True Right ascension
23h 44m 27s
True Declination
20° 02' 54"
Sunlit
Object was in daylight at epoch
Visualization orbit readout
Latitude
Unknown
Longitude
Unknown
Altitude
Unknown
Speed
Unknown
Apparent Right ascension
Unknown
Apparent Declination
Unknown
Sunlit
N/A
Visualization observer readout
Local Sidereal Time
02:17:36
Azimuth
Unknown
Elevation
Unknown
Doppler factor
Unknown
Orbital elements
Apogee altitude
1,004.923 km
Perigee altitude
950.394 km
Semi-major axis
7,355.795 km
Eccentricity
0.00371
Inclination
89.6182°
RAAN
176.2534°
Arg. of periapsis
268.1731°
True anomaly
251.67256°
Mean anomaly
252.0761°
Eccentric anomaly
251.87427°
Mean motion
3.44032 °/min
Orbital period
104.64 mins
BSTAR
0.00007017
Loading maneuver chart data...
Computing Atmospheric mass density...
Loading historical data...
Loading historical data...
Loading historical data...
Loading historical data...
Loading historical data...
Loading historical data...
Loading historical data...
Other satellites on launch #88 in the year 1986 (1986-11-14 UTC)

Documentation

Showing up to 5 results
|